TimeEDT,TemperatureF,Dew PointF,Humidity,Sea Level PressureIn,VisibilityMPH,Wind Direction,Wind SpeedMPH,Gust SpeedMPH,PrecipitationIn,Events,Conditions,WindDirDegrees,DateUTC
12:53 AM,71.1,69.1,93,29.78,6.0,SW,5.8,-,N/A,,Scattered Clouds,220,2013-06-28 04:53:00
1:36 AM,72.0,70.0,93,29.84,5.0,SW,3.5,-,N/A,,Overcast,230,2013-06-28 05:36:00
1:53 AM,72.0,70.0,93,29.76,5.0,WSW,3.5,-,N/A,,Overcast,250,2013-06-28 05:53:00
2:53 AM,70.0,68.0,93,29.76,5.0,WSW,5.8,-,N/A,,Overcast,240,2013-06-28 06:53:00
3:53 AM,69.1,66.9,93,29.77,6.0,Calm,Calm,-,N/A,,Mostly Cloudy,0,2013-06-28 07:53:00
4:53 AM,69.1,66.9,93,29.76,7.0,Calm,Calm,-,N/A,,Mostly Cloudy,0,2013-06-28 08:53:00
5:36 AM,70.0,66.9,90,29.84,8.0,Calm,Calm,-,N/A,,Overcast,0,2013-06-28 09:36:00
5:53 AM,70.0,66.9,90,29.76,8.0,Calm,Calm,-,N/A,,Overcast,0,2013-06-28 09:53:00
6:38 AM,70.0,68.0,93,29.84,6.0,Calm,Calm,-,N/A,,Overcast,0,2013-06-28 10:38:00
6:53 AM,70.0,68.0,93,29.76,6.0,SW,4.6,-,N/A,,Overcast,220,2013-06-28 10:53:00
7:27 AM,71.1,68.0,90,29.83,5.0,SW,4.6,-,N/A,,Overcast,230,2013-06-28 11:27:00
7:53 AM,71.1,69.1,93,29.74,5.0,SW,8.1,-,N/A,,Overcast,220,2013-06-28 11:53:00
8:53 AM,73.9,70.0,87,29.73,8.0,WSW,12.7,-,N/A,,Mostly Cloudy,240,2013-06-28 12:53:00
9:05 AM,75.0,70.0,84,29.81,9.0,West,9.2,-,N/A,,Overcast,260,2013-06-28 13:05:00
9:53 AM,77.0,70.0,79,29.72,10.0,WSW,11.5,-,N/A,,Mostly Cloudy,250,2013-06-28 13:53:00
10:08 AM,77.0,69.1,76,29.79,10.0,WSW,8.1,-,N/A,,Mostly Cloudy,250,2013-06-28 14:08:00
10:40 AM,79.0,70.0,74,29.79,10.0,WSW,8.1,-,N/A,,Mostly Cloudy,250,2013-06-28 14:40:00
10:53 AM,79.0,70.0,74,29.70,10.0,SW,8.1,-,N/A,,Mostly Cloudy,230,2013-06-28 14:53:00
11:53 AM,82.9,69.1,63,29.70,10.0,West,17.3,-,N/A,,Mostly Cloudy,260,2013-06-28 15:53:00
12:53 PM,84.0,69.1,61,29.69,10.0,West,13.8,-,N/A,,Mostly Cloudy,270,2013-06-28 16:53:00
1:16 PM,82.9,68.0,60,29.76,10.0,WSW,16.1,-,N/A,Thunderstorm,Thunderstorm,250,2013-06-28 17:16:00
1:53 PM,79.0,68.0,69,29.70,10.0,NNW,6.9,-,0.00,Rain-Thunderstorm,Light Thunderstorms and Rain,330,2013-06-28 17:53:00
2:09 PM,80.1,68.0,67,29.77,10.0,WSW,11.5,-,0.00,,Overcast,240,2013-06-28 18:09:00
2:53 PM,79.0,68.0,69,29.68,10.0,West,11.5,-,0.00,,Overcast,260,2013-06-28 18:53:00
3:53 PM,78.1,64.9,64,29.65,10.0,WNW,5.8,-,0.00,,Overcast,290,2013-06-28 19:53:00
4:53 PM,77.0,66.9,71,29.65,10.0,SW,5.8,-,N/A,,Overcast,220,2013-06-28 20:53:00
5:53 PM,78.1,66.0,66,29.62,10.0,SW,6.9,-,N/A,,Mostly Cloudy,230,2013-06-28 21:53:00
6:53 PM,77.0,69.1,76,29.62,10.0,SW,6.9,-,N/A,,Mostly Cloudy,220,2013-06-28 22:53:00
7:53 PM,77.0,63.0,62,29.64,10.0,SW,8.1,-,N/A,,Scattered Clouds,230,2013-06-28 23:53:00
8:53 PM,72.0,66.0,81,29.64,10.0,SW,9.2,-,N/A,,Scattered Clouds,230,2013-06-29 00:53:00
9:53 PM,71.1,66.0,84,29.65,10.0,WSW,9.2,-,N/A,,Scattered Clouds,250,2013-06-29 01:53:00
10:53 PM,69.1,66.0,90,29.66,10.0,SW,3.5,-,N/A,,Scattered Clouds,220,2013-06-29 02:53:00
11:53 PM,68.0,66.0,93,29.65,9.0,Calm,Calm,-,N/A,,Partly Cloudy,0,2013-06-29 03:53:00